Olathe, KS

6:00 AM CDT on July 22, 2017 (GMT -0500)
Johnson County Executive

Weather History for KOJC - May, 2014

Change the Weather History Date:

Wednesday, May 28, 2014

  Actual Average Record
Temperature  
Mean Temperature 76 °F 68 °F  
Max Temperature 89 °F 78 °F 89 °F (2012)
Min Temperature 62 °F 59 °F 42 °F (1992)
Degree Days  
Heating Degree Days 0 1  
Month to date heating degree days 113 90  
Since 1 July heating degree days 5692 4921  
Cooling Degree Days 11 5  
Month to date cooling degree days 118 70  
Year to date cooling degree days 123 88  
Growing Degree Days 24 (Base 50)    
Moisture  
Dew Point 63 °F    
Average Humidity 67    
Maximum Humidity 93    
Minimum Humidity 40    
Precipitation  
Precipitation 0.28 in 0.17 in 2.70 in (1964)
Month to date precipitation 1.17 4.91  
Year to date precipitation 7.38 14.22  
Sea Level Pressure  
Sea Level Pressure 29.93 in    
Wind  
Wind Speed 5 mph (WNW)    
Max Wind Speed 18 mph    
Max Gust Speed 26 mph    
Visibility 7 miles    
Events Rain , Thunderstorm    
T = Trace of Precipitation, MM = Missing Value Source: NWS Daily Summary

Daily Weather History Graph

Daily Weather History Graph

Search for Another Location

Airport or City:

Trip Planner

Search our weather history database for the weather conditions in past years. The results will help you decide how hot, cold, wet, or windy it might be!

Date:

Astronomy

May. 28, 2014 Rise Set
Actual Time 5:57 AM CDT 8:35 PM CDT
Civil Twilight 5:26 AM CDT 9:06 PM CDT
Nautical Twilight 4:47 AM CDT 9:45 PM CDT
Astronomical Twilight 4:04 AM CDT 10:29 PM CDT
Moon 6:03 AM CDT (5/28) 8:35 PM CDT (5/28)
Length of Visible Light 15h 40m
Length of Day
14h 38m
Waning Crescent, 0% of the Moon is Illuminated
May 28
Waning Crescent
May 28
New
Jun 5
First Quarter
Jun 12
Full
Jun 19
Last Quarter

Hourly Weather History & Observations

Time (CDT) Temp. Heat Index Dew Point Humidity Pressure Visibility Wind Dir Wind Speed Gust Speed Precip Events Conditions
12:53 AM 68.0 °F - 63.0 °F 84% 29.93 in 10.0 mi Calm Calm - N/A   Clear
1:53 AM 64.0 °F - 62.1 °F 93% 29.92 in 7.0 mi Calm Calm - N/A   Clear
2:53 AM 64.0 °F - 62.1 °F 93% 29.92 in 7.0 mi Calm Calm - N/A   Clear
3:53 AM 63.0 °F - 61.0 °F 93% 29.92 in 6.0 mi South 3.5 mph - N/A   Clear
4:53 AM 66.0 °F - 63.0 °F 90% 29.91 in 9.0 mi West 3.5 mph - N/A   Clear
5:53 AM 62.1 °F - 61.0 °F 96% 29.91 in 3.0 mi Calm Calm - N/A   Clear
6:03 AM 62.1 °F - 61.0 °F 96% 29.94 in 2.5 mi Calm Calm - N/A   Clear
6:09 AM 62.1 °F - 61.0 °F 96% 29.95 in 1.2 mi Calm Calm - N/A   Clear
6:21 AM 62.1 °F - 61.0 °F 96% 29.95 in 2.0 mi Calm Calm - N/A   Clear
6:33 AM 63.0 °F - 62.1 °F 97% 29.95 in 4.0 mi Calm Calm - N/A   Clear
6:53 AM 64.0 °F - 62.1 °F 93% 29.93 in 6.0 mi Calm Calm - N/A   Clear
8:53 AM 75.0 °F - 64.9 °F 71% 29.96 in 10.0 mi NW 5.8 mph - N/A   Clear
9:53 AM 78.1 °F - 64.9 °F 64% 29.96 in 10.0 mi NNW 9.2 mph - N/A   Clear
10:53 AM 81.0 °F 82.2 °F 63.0 °F 54% 29.96 in 10.0 mi North 9.2 mph - N/A   Clear
11:53 AM 82.9 °F 84.0 °F 63.0 °F 51% 29.95 in 10.0 mi North 5.8 mph - N/A   Clear
1:53 PM 82.9 °F 83.7 °F 62.1 °F 49% 29.94 in 10.0 mi North 5.8 mph - N/A   Mostly Cloudy
2:53 PM 86.0 °F 85.4 °F 59.0 °F 40% 29.92 in 10.0 mi NNE 11.5 mph - N/A   Mostly Cloudy
3:53 PM 84.9 °F 84.4 °F 59.0 °F 41% 29.90 in 10.0 mi NE 5.8 mph - N/A   Scattered Clouds
6:53 PM 78.1 °F - 66.0 °F 66% 29.88 in 5.0 mi SSE 6.9 mph - 0.02 in Rain Rain
7:06 PM 75.9 °F - 66.9 °F 74% 29.92 in 9.0 mi Calm Calm - 0.00 in Rain , Thunderstorm Light Thunderstorms and Rain
7:12 PM 75.9 °F - 68.0 °F 76% 29.93 in 1.0 mi North - - 0.11 in Rain , Thunderstorm Light Thunderstorms and Rain
7:14 PM 75.0 °F - 68.0 °F 79% 29.92 in 0.5 mi North - - 0.20 in Rain , Thunderstorm Heavy Thunderstorms and Rain
7:24 PM 72.0 °F - 63.0 °F 73% 29.92 in 1.2 mi SSW 8.1 mph 26.5 mph 0.26 in Rain , Thunderstorm Light Thunderstorms and Rain
7:26 PM 72.0 °F - 63.0 °F 73% 29.91 in 10.0 mi SW 8.1 mph 25.3 mph 0.26 in Rain , Thunderstorm Light Thunderstorms and Rain
7:33 PM 73.0 °F - 62.1 °F 68% 29.91 in 10.0 mi SSE 5.8 mph - 0.26 in Thunderstorm Scattered Clouds
7:53 PM 72.0 °F - 64.0 °F 76% 29.90 in 10.0 mi WSW 5.8 mph - 0.26 in   Clear
8:53 PM 71.1 °F - 66.9 °F 87% 29.91 in 10.0 mi SSE 4.6 mph - N/A   Partly Cloudy
9:53 PM 71.1 °F - 66.9 °F 87% 29.92 in 9.0 mi Calm Calm - N/A   Clear
10:53 PM 71.1 °F - 66.0 °F 84% 29.92 in 10.0 mi Calm Calm - N/A   Clear
11:53 PM 71.1 °F - 66.0 °F 84% 29.92 in 10.0 mi NNW 4.6 mph - N/A   Clear